Weather in Karlskoga

Sweden     59°19′37″N   14°30′45″E
temp.,
°C
wind,
m/s
gust,
m/s
humid.,
%
clouds,
%
prec.,
mm/h
press.,
hPa
HPBL,
m
13 may, thu
thu1323:00+12ese238459 0.3 100762
02:00+10ese119157 0.3 100811
05:00+9e119321 0.0 100711
08:00+14e237559 0.0 1007290
11:00+20ese455441 0.0 1006830
14:00+23ese5546100 0.0 10051976
17:00+22ese55401 0.0 10051939
20:00+17ese38515 0.0 1005354
14 may, fri
fri1423:00+12ese277119 0.0 1007114
02:00+12e277183 0.1 1006199
05:00+9ene259279 0.3 100692
08:00+11ene3881100 0.3 1006372
11:00+13ene3569100 0.0 1006351
14:00+17ene235199 0.0 1005885
17:00+11ese5989100 0.9 1005393
20:00+11ne249320 3.4 1005315
15 may, sat
sat1523:00+8ne259834 0.2 1006133
02:00+8ene3798100 0.3 1005265
05:00+7ne2698100 0.0 1005284
08:00+7nne2697100 0.9 1005340
11:00+8ne2695100 1.7 1004459
14:00+9e2392100 2.4 1005470
17:00+9e129292 0.1 1004279
20:00+9se239297 0.1 1004275
16 may, sun
sun1623:00+6e1298100 0.0 100542
02:00+8ese2497100 0.0 1006138
05:00+8ssw1398100 0.1 1006197
08:00+10s128338 0.1 1007516
11:00+14se3457100 0.0 10071349
14:00+15se466298 0.4 10061311
17:00+10se31088100 0.8 1006506
20:00+10se31080100 0.8 1006667
17 may, mon
mon1723:00+9e3987100 0.0 1005462
02:00+9ese3890100 0.1 1005568
05:00+8e2497100 0.1 1003251
08:00+10s0187100 0.1 1002280
11:00+12wsw346968 0.3 10021053
14:00+15sw455319 0.6 10021466
17:00+14sw356382 0.4 10031093
20:00+12sw127718 0.7 100355